Temp
-13 -12 -12 -11 -11 -10 -11 -11 -10 -10 -10 -10 -10 -10 -10 -10 -10 -10 -10 -10 -10 -10 -10 -11 -11 -11 -11 -11 -11 -11 -10 -10 -10 -10 -10 -10 -10 -9 -9 -10 -10 -10 -10 -10 -10 -10 -11
-13 -12 -12 -11 -11 -11 -11 -11 -11 -11 -10 -10 -10 -10 -10 -10 -10 -10 -10 -10 -10 -10 -10 -10 -11 -11 -12 -11 -11 -11 -11 -11 -10 -10 -10 -10 -10 -9 -9 -10 -10 -10 -10 -9 -10 -10 -10
-13 -12 -12 -12 -12 -11 -11 -11 -11 -11 -11 -11 -10 -10 -11 -11 -10 -10 -10 -9 -10 -10 -10 -10 -10 -11 -12 -12 -11 -11 -11 -11 -11 -11 -11 -10 -10 -10 -10 -10 -10 -10 -10 -10 -10 -10 -10
-12 -12 -12 -12 -12 -12 -12 -12 -11 -12 -12 -11 -11 -11 -11 -11 -11 -11 -11 -10 -10 -10 -11 -10 -11 -11 -11 -12 -12 -11 -11 -11 -11 -11 -11 -11 -11 -10 -10 -11 -10 -10 -10 -11 -10 -10 -10
-12 -12 -12 -12 -12 -12 -12 -12 -12 -12 -12 -12 -11 -12 -12 -12 -12 -12 -12 -11 -11 -10 -10 -10 -10 -11 -11 -12 -12 -12 -12 -11 -11 -11 -12 -11 -11 -11 -11 -11 -11 -11 -11 -11 -11 -11 -10
-12 -12 -12 -12 -13 -13 -12 -12 -12 -12 -12 -12 -12 -12 -12 -12 -13 -13 -12 -12 -11 -11 -11 -11 -11 -11 -11 -11 -12 -12 -12 -13 -12 -11 -12 -12 -12 -11 -12 -11 -11 -12 -11 -11 -11 -11 -11
-12 -13 -12 -13 -13 -13 -13 -13 -13 -12 -12 -12 -12 -12 -13 -13 -13 -13 -13 -12 -12 -12 -12 -12 -11 -11 -11 -11 -11 -13 -13 -12 -13 -13 -13 -12 -12 -12 -12 -12 -12 -11 -11 -11 -11 -11 -11
-13 -13 -13 -13 -13 -13 -13 -13 -13 -13 -13 -12 -12 -12 -12 -13 -13 -13 -13 -13 -13 -12 -12 -12 -12 -12 -12 -11 -12 -13 -12 -13 -13 -13 -13 -13 -12 -13 -13 -13 -13 -13 -12 -12 -12 -12 -12
-13 -13 -13 -13 -13 -13 -13 -13 -13 -13 -13 -14 -13 -12 -12 -13 -13 -13 -13 -13 -13 -13 -12 -13 -12 -12 -12 -12 -13 -13 -13 -13 -13 -13 -14 -13 -13 -13 -13 -13 -13 -13 -13 -13 -13 -13 -12
-13 -12 -13 -13 -13 -13 -13 -13 -13 -13 -13 -13 -13 -13 -13 -14 -14 -14 -14 -13 -14 -14 -14 -13 -13 -13 -13 -13 -13 -13 -13 -13 -13 -13 -13 -13 -13 -13 -13 -13 -14 -13 -13 -13 -13 -13 -13
-12 -13 -13 -13 -13 -13 -13 -13 -13 -13 -14 -14 -14 -14 -14 -14 -14 -14 -14 -14 -14 -15 -15 -14 -14 -14 -14 -14 -14 -14 -14 -14 -13 -13 -13 -13 -13 -13 -14 -14 -14 -12 -14 -13 -13 -13 -13
-13 -13 -13 -13 -13 -13 -13 -13 -13 -14 -14 -14 -15 -15 -15 -15 -15 -15 -15 -15 -15 -16 -15 -15 -15 -16 -16 -16 -15 -15 -15 -15 -15 -14 -14 -14 -14 -13 -14 -14 -14 -14 -14 -14 -14 -14 -13
-13 -13 -13 -13 -13 -13 -13 -13 -14 -14 -15 -15 -15 -15 -15 -16 -16 -16 -16 -16 -16 -16 -16 -16 -16 -16 -16 -16 -16 -15 -15 -15 -14 -14 -14 -14 -14 -14 -14 -13 -14 -15 -14 -15 -15 -14 -13
-13 -13 -13 -13 -13 -14 -15 -15 -15 -16 -16 -16 -16 -16 -16 -16 -16 -17 -17 -17 -17 -16 -16 -16 -16 -16 -16 -16 -15 -15 -16 -16 -15 -15 -14 -15 -15 -16 -15 -16 -16 -16 -16 -16 -16 -16 -16
-15 -16 -16 -16 -16 -16 -16 -16 -17 -17 -17 -17 -17 -17 -17 -17 -17 -17 -17 -17 -17 -16 -16 -17 -18 -17 -17 -17 -16 -15 -16 -16 -18 -17 -16 -17 -16 -16 -17 -18 -19 -19 -18 -18 -19 -18 -19
-17 -17 -17 -17 -17 -17 -17 -17 -17 -17 -17 -17 -17 -17 -17 -17 -18 -18 -19 -18 -18 -18 -18 -18 -18 -18 -18 -18 -18 -19 -18 -18 -19 -19 -18 -20 -19 -19 -19 -20 -20 -21 -20 -20 -20 -20 -19
-17 -17 -17 -17 -17 -18 -17 -17 -17 -17 -18 -18 -18 -18 -18 -19 -19 -19 -19 -19 -19 -19 -19 -19 -19 -19 -19 -19 -19 -19 -19 -20 -20 -22 -21 -21 -23 -21 -22 -22 -22 -22 -21 -21 -21 -21 -21
-18 -18 -18 -18 -18 -18 -18 -18 -18 -18 -19 -19 -19 -19 -20 -20 -20 -20 -20 -20 -20 -20 -20 -20 -20 -20 -20 -20 -20 -20 -20 -20 -21 -23 -24 -24 -24 -23 -23 -23 -23 -22 -21 -21 -21 -21 -21
-19 -18 -18 -18 -19 -19 -19 -19 -20 -19 -20 -20 -20 -20 -21 -21 -21 -21 -21 -21 -21 -21 -21 -21 -21 -21 -21 -22 -22 -22 -22 -23 -24 -24 -26 -26 -27 -27 -24 -23 -23 -23 -22 -22 -22 -22 -21
-19 -19 -19 -19 -19 -19 -20 -20 -21 -20 -21 -21 -21 -21 -22 -22 -22 -22 -22 -22 -22 -22 -23 -23 -22 -23 -24 -24 -25 -25 -25 -26 -26 -26 -26 -27 -26 -27 -27 -26 -26 -25 -24 -23 -23 -23 -23
-20 -20 -19 -20 -19 -20 -21 -22 -21 -22 -22 -23 -23 -23 -23 -23 -23 -23 -23 -23 -24 -24 -24 -25 -25 -26 -26 -26 -26 -26 -27 -27 -27 -27 -27 -27 -27 -27 -26 -26 -26 -26 -26 -25 -24 -23 -24
-23 -23 -23 -23 -23 -22 -22 -22 -23 -23 -23 -23 -24 -24 -24 -24 -24 -24 -25 -25 -26 -26 -26 -26 -26 -27 -27 -27 -28 -27 -28 -28 -27 -27 -28 -28 -27 -27 -27 -26 -27 -26 -26 -26 -25 -25 -25
-24 -23 -23 -23 -23 -24 -24 -24 -24 -24 -24 -25 -25 -25 -25 -25 -25 -26 -26 -26 -26 -27 -27 -27 -28 -28 -29 -29 -28 -28 -28 -28 -29 -28 -28 -28 -27 -27 -27 -27 -27 -27 -26 -26 -26 -26 -26
-25 -25 -25 -25 -25 -25 -25 -25 -25 -25 -25 -25 -25 -26 -26 -26 -27 -27 -27 -28 -28 -28 -28 -28 -29 -29 -30 -29 -29 -29 -29 -29 -29 -29 -29 -28 -28 -27 -27 -27 -27 -26 -26 -26 -26 -26 -26
-26 -26 -26 -26 -26 -26 -26 -26 -26 -26 -26 -26 -27 -27 -27 -28 -28 -28 -29 -29 -29 -29 -29 -29 -30 -29 -29 -29 -29 -29 -29 -29 -29 -29 -29 -29 -28 -28 -28 -28 -27 -27 -26 -26 -27 -27 -27
-26 -26 -27 -27 -27 -27 -27 -27 -27 -27 -27 -28 -28 -28 -29 -29 -29 -29 -30 -30 -29 -29 -29 -29 -30 -30 -30 -30 -30 -29 -29 -30 -29 -29 -29 -29 -28 -28 -28 -27 -27 -27 -28 -27 -27 -26 -27
-28 -27 -27 -27 -27 -27 -27 -28 -28 -28 -28 -29 -29 -29 -29 -29 -30 -30 -30 -30 -30 -29 -29 -30 -30 -30 -30 -30 -30 -30 -30 -30 -29 -29 -29 -29 -29 -28 -28 -28 -27 -28 -27 -27 -27 -27 -27
-28 -28 -28 -28 -28 -28 -28 -28 -28 -29 -29 -29 -29 -29 -29 -29 -30 -30 -30 -30 -30 -30 -30 -30 -30 -31 -31 -31 -30 -30 -30 -30 -29 -29 -29 -29 -29 -29 -28 -28 -28 -27 -27 -27 -27 -27 -27
-29 -29 -28 -28 -28 -28 -28 -29 -29 -29 -29 -29 -29 -29 -29 -30 -30 -31 -31 -31 -31 -31 -31 -31 -31 -31 -31 -31 -31 -30 -30 -30 -30 -29 -29 -29 -29 -29 -29 -28 -28 -27 -27 -27 -27 -27 -27
Height
5766 5767 5768 5768 5769 5770 5772 5773 5776 5775 5777 5778 5778 5780 5783 5783 5784 5784 5784 5785 5785 5786 5787 5789 5788 5791 5792 5795 5789 5790 5792 5793 5793 5793 5793 5792 5792 5791 5792 5791 5790 5792 5793 5794 5793 5793 5792
5755 5756 5757 5759 5759 5760 5763 5765 5766 5768 5768 5771 5771 5772 5774 5776 5777 5776 5777 5779 5779 5780 5780 5780 5781 5783 5785 5788 5785 5783 5785 5785 5785 5785 5784 5785 5785 5786 5785 5785 5784 5784 5785 5786 5786 5787 5786
5742 5744 5747 5748 5749 5751 5753 5755 5757 5759 5759 5762 5764 5764 5765 5768 5768 5769 5770 5771 5772 5772 5773 5774 5774 5774 5777 5779 5776 5779 5779 5779 5778 5779 5779 5778 5778 5779 5779 5780 5778 5777 5778 5779 5780 5780 5778
5731 5733 5734 5738 5738 5740 5743 5746 5747 5750 5750 5752 5755 5755 5756 5759 5762 5761 5761 5762 5764 5765 5765 5764 5766 5766 5769 5770 5769 5768 5769 5770 5771 5770 5771 5771 5770 5770 5771 5772 5772 5772 5772 5773 5772 5772 5769
5718 5720 5723 5725 5728 5728 5731 5733 5737 5739 5740 5741 5745 5747 5749 5750 5752 5753 5753 5754 5753 5756 5757 5757 5757 5757 5759 5760 5758 5758 5758 5760 5762 5763 5762 5763 5762 5762 5763 5764 5764 5765 5765 5763 5764 5763 5763
5703 5707 5711 5713 5716 5718 5719 5720 5725 5726 5729 5731 5732 5736 5739 5741 5742 5744 5744 5743 5744 5744 5746 5747 5748 5750 5749 5748 5749 5749 5749 5751 5752 5753 5755 5755 5753 5753 5757 5757 5755 5753 5751 5755 5756 5758 5758
5689 5693 5697 5700 5702 5704 5706 5708 5711 5713 5715 5718 5721 5723 5725 5728 5731 5731 5732 5734 5733 5734 5735 5738 5736 5737 5737 5738 5739 5740 5741 5740 5743 5744 5745 5745 5744 5746 5746 5744 5744 5744 5742 5743 5746 5748 5748
5675 5679 5682 5685 5689 5690 5692 5693 5697 5699 5699 5702 5703 5709 5711 5716 5718 5721 5720 5719 5719 5721 5723 5724 5727 5725 5726 5728 5731 5728 5733 5734 5733 5735 5734 5735 5733 5737 5736 5736 5732 5731 5731 5732 5733 5735 5735
5660 5665 5667 5668 5672 5675 5678 5681 5683 5685 5687 5688 5687 5689 5695 5701 5703 5707 5711 5709 5710 5708 5709 5712 5713 5713 5714 5718 5720 5718 5722 5722 5724 5723 5724 5722 5725 5722 5724 5724 5723 5723 5720 5719 5719 5720 5720
5644 5650 5652 5655 5656 5658 5662 5665 5667 5668 5670 5671 5672 5673 5677 5685 5688 5691 5694 5697 5697 5697 5697 5698 5699 5702 5705 5705 5707 5707 5708 5711 5712 5713 5712 5711 5712 5712 5710 5710 5709 5711 5710 5708 5707 5705 5705
5628 5633 5636 5639 5640 5642 5646 5649 5649 5652 5654 5655 5657 5661 5665 5668 5673 5675 5680 5681 5684 5683 5682 5681 5683 5687 5689 5691 5691 5692 5693 5694 5695 5696 5697 5699 5698 5697 5696 5696 5693 5699 5693 5693 5693 5693 5692
5608 5614 5617 5621 5625 5628 5629 5632 5635 5636 5638 5642 5644 5646 5651 5652 5655 5660 5663 5667 5671 5672 5664 5669 5672 5672 5673 5672 5673 5674 5677 5678 5679 5681 5682 5684 5682 5682 5681 5681 5678 5680 5678 5676 5675 5674 5674
5594 5598 5599 5604 5608 5610 5613 5616 5620 5623 5626 5630 5634 5635 5638 5641 5644 5648 5651 5653 5656 5655 5653 5656 5659 5658 5657 5655 5654 5656 5659 5660 5660 5661 5662 5664 5666 5666 5665 5665 5662 5661 5660 5658 5657 5654 5659
5574 5581 5583 5587 5592 5594 5598 5601 5605 5610 5615 5615 5618 5621 5624 5628 5630 5633 5637 5641 5640 5640 5640 5640 5643 5644 5643 5642 5641 5640 5641 5642 5641 5638 5638 5638 5642 5641 5645 5644 5644 5641 5640 5639 5635 5639 5639
5558 5560 5566 5573 5577 5579 5584 5587 5591 5596 5599 5602 5605 5608 5611 5614 5617 5619 5623 5626 5626 5626 5626 5624 5624 5625 5628 5625 5627 5626 5625 5625 5622 5622 5621 5618 5620 5617 5619 5622 5626 5623 5621 5622 5616 5619 5614
5541 5547 5551 5559 5563 5567 5570 5572 5576 5581 5585 5588 5589 5592 5596 5599 5601 5604 5607 5611 5609 5608 5607 5608 5611 5612 5613 5610 5609 5608 5608 5611 5606 5603 5599 5596 5596 5601 5599 5602 5609 5607 5607 5603 5601 5598 5598
5528 5535 5539 5544 5548 5553 5555 5560 5564 5566 5570 5574 5575 5577 5580 5584 5588 5591 5593 5594 5593 5590 5591 5593 5593 5594 5596 5595 5594 5593 5592 5594 5592 5587 5582 5581 5575 5582 5584 5587 5589 5592 5591 5587 5587 5586 5585
5515 5521 5524 5529 5534 5537 5541 5545 5550 5554 5558 5560 5561 5564 5566 5570 5573 5574 5576 5577 5579 5575 5574 5576 5576 5574 5575 5574 5572 5573 5576 5574 5571 5567 5565 5562 5557 5557 5566 5573 5571 5575 5576 5573 5568 5571 5571
5500 5505 5509 5514 5520 5525 5529 5532 5536 5541 5544 5547 5549 5549 5552 5554 5559 5560 5559 5561 5560 5561 5557 5557 5558 5558 5554 5555 5549 5550 5555 5560 5550 5550 5546 5547 5538 5535 5548 5557 5557 5554 5563 5559 5558 5556 5556
5488 5492 5496 5500 5506 5510 5514 5519 5523 5526 5530 5535 5535 5534 5538 5539 5541 5543 5545 5544 5543 5543 5539 5539 5540 5539 5534 5534 5532 5528 5533 5537 5534 5533 5534 5528 5526 5529 5531 5539 5542 5539 5544 5546 5544 5541 5543
5472 5477 5483 5487 5499 5498 5501 5503 5508 5512 5516 5522 5523 5522 5525 5527 5525 5527 5528 5527 5528 5526 5525 5523 5523 5521 5516 5515 5516 5518 5515 5518 5521 5519 5520 5516 5515 5519 5521 5523 5525 5525 5526 5527 5528 5530 5526
5461 5468 5472 5477 5481 5487 5492 5493 5497 5502 5505 5508 5511 5510 5512 5511 5513 5512 5513 5513 5511 5510 5510 5509 5506 5506 5503 5501 5502 5499 5499 5501 5503 5507 5506 5506 5505 5508 5507 5512 5514 5512 5513 5515 5517 5518 5517
5454 5457 5464 5468 5473 5478 5482 5484 5489 5490 5492 5496 5496 5498 5499 5500 5501 5498 5499 5496 5497 5496 5497 5497 5492 5493 5491 5487 5484 5486 5486 5487 5487 5489 5492 5493 5496 5498 5496 5503 5501 5498 5506 5505 5504 5506 5506
5444 5449 5455 5459 5463 5466 5470 5474 5478 5481 5483 5485 5486 5486 5487 5488 5486 5485 5484 5484 5486 5486 5487 5485 5482 5483 5480 5479 5477 5476 5475 5473 5471 5474 5479 5482 5485 5486 5487 5490 5485 5494 5494 5496 5495 5496 5497
5437 5442 5446 5450 5454 5458 5463 5467 5470 5470 5472 5472 5473 5475 5477 5478 5476 5475 5475 5477 5475 5475 5476 5476 5473 5474 5473 5472 5470 5469 5468 5465 5463 5462 5464 5469 5474 5474 5475 5478 5479 5481 5486 5487 5486 5486 5487
5432 5437 5440 5445 5449 5452 5455 5457 5459 5461 5462 5463 5465 5467 5469 5468 5467 5465 5466 5465 5465 5466 5466 5467 5465 5465 5466 5465 5464 5462 5460 5457 5456 5454 5454 5457 5459 5461 5467 5467 5468 5477 5477 5478 5476 5479 5480
5427 5431 5436 5439 5441 5445 5447 5450 5452 5453 5455 5456 5456 5457 5458 5457 5456 5455 5455 5456 5456 5458 5459 5459 5457 5456 5456 5457 5457 5456 5455 5453 5449 5449 5449 5449 5450 5450 5455 5454 5459 5468 5469 5469 5469 5477 5473
5423 5427 5430 5433 5436 5439 5441 5443 5444 5444 5446 5447 5446 5447 5448 5449 5447 5447 5447 5448 5448 5449 5449 5450 5449 5447 5448 5449 5451 5450 5449 5446 5445 5444 5443 5442 5442 5444 5447 5446 5452 5458 5459 5463 5465 5463 5466
5420 5423 5426 5428 5430 5433 5435 5436 5436 5437 5438 5438 5438 5439 5439 5440 5440 5438 5437 5439 5439 5438 5439 5439 5440 5438 5440 5441 5442 5442 5442 5440 5440 5438 5436 5437 5437 5437 5439 5441 5444 5446 5450 5452 5452 5453 5457
Wind_Speed
48 43 39 36 35 37 37 38 37 36 36 35 34 33 32 30 28 28 29 31 31 29 27 24 20 21 22 22 31 26 25 23 25 25 26 27 29 31 29 27 28 27 26 25 26 27 27
48 44 41 40 37 37 38 40 38 41 39 40 38 36 35 34 33 32 32 35 34 34 33 30 27 26 24 24 31 34 31 29 30 28 26 27 28 29 29 29 29 28 29 28 29 27 26
50 46 46 43 41 42 42 44 41 42 41 44 41 38 37 38 38 36 37 40 39 39 39 36 35 33 30 28 32 35 37 37 34 31 29 31 30 29 29 29 30 30 31 29 29 30 32
52 49 48 45 45 44 44 46 44 44 44 45 44 42 42 43 42 41 42 41 44 43 43 42 42 40 38 36 36 35 37 38 39 36 35 32 34 35 32 31 30 32 33 30 32 30 38
54 52 49 48 48 46 46 46 48 47 47 47 47 48 46 45 46 46 44 44 44 47 48 47 47 49 43 42 39 39 38 39 41 40 36 37 37 38 36 32 32 32 33 35 33 36 39
56 54 52 50 50 50 49 50 52 49 52 51 50 49 50 47 47 47 48 47 48 49 49 49 49 50 51 48 46 43 40 38 39 42 41 37 40 39 35 35 36 35 40 39 39 39 38
59 58 56 53 50 52 51 52 56 55 55 57 58 55 54 52 49 50 51 53 50 53 50 52 52 50 51 53 50 48 46 42 41 37 39 40 41 39 36 37 40 40 42 42 42 41 42
65 62 62 58 55 56 55 53 58 59 62 62 64 59 57 57 56 56 55 56 54 55 54 53 54 53 55 54 51 45 52 48 44 43 42 46 48 37 40 40 39 41 43 43 43 44 46
63 64 68 61 61 68 65 62 65 65 67 69 71 69 62 57 59 61 64 60 61 60 60 57 56 58 57 54 52 52 51 53 53 50 45 52 51 50 46 44 46 45 45 47 48 49 50
67 69 66 68 67 70 68 69 76 70 67 76 76 78 69 64 65 62 64 67 63 60 63 62 61 57 55 56 56 57 57 54 53 54 51 54 52 53 52 49 44 51 48 54 52 54 55
69 71 75 72 71 72 74 76 76 76 76 80 82 82 79 71 70 69 67 63 63 63 61 64 64 57 54 54 53 53 53 55 54 54 55 56 56 53 53 53 51 55 50 52 55 55 58
75 79 78 77 72 74 73 73 76 78 75 69 67 69 70 68 64 64 62 60 57 59 64 62 61 59 57 54 52 52 53 55 54 54 55 55 57 59 60 60 57 56 57 59 59 60 64
76 72 74 71 78 78 80 75 82 73 61 61 67 63 59 51 48 48 51 51 53 54 53 55 56 55 55 58 59 59 59 61 62 63 60 61 61 63 64 66 65 63 62 62 65 68 70
80 78 79 81 84 75 71 65 61 60 55 51 48 48 50 47 44 42 44 45 47 49 50 50 50 50 56 61 62 63 63 63 69 70 71 71 67 68 68 64 64 66 64 65 69 67 66
65 55 65 55 60 56 54 54 49 51 50 47 47 47 48 50 51 50 49 50 51 55 56 51 50 53 55 60 65 68 66 68 65 68 72 73 78 79 72 67 61 64 66 64 68 69 69
60 57 54 46 52 54 57 56 52 54 54 54 54 51 53 52 48 48 48 48 49 49 52 53 54 54 55 56 59 61 63 66 68 71 73 71 76 75 73 70 66 63 63 63 64 64 68
65 65 59 57 52 55 51 57 59 57 54 51 50 49 48 46 48 47 47 48 48 49 52 54 55 56 57 59 61 62 64 64 65 65 70 67 68 72 63 61 50 44 46 50 59 50 46
60 58 54 54 58 58 58 58 52 54 43 42 44 44 45 44 47 47 48 49 51 53 55 57 57 58 61 63 65 67 68 69 69 67 64 64 65 69 57 50 56 45 48 45 49 36 39
60 61 61 60 60 61 54 47 41 44 42 42 43 44 46 48 49 50 51 53 54 56 57 58 59 60 62 64 65 66 67 64 64 62 59 55 54 54 64 61 55 55 49 42 38 39 39
64 61 61 59 59 51 44 40 37 38 40 41 44 45 46 49 50 54 55 52 55 55 56 56 57 58 59 59 58 59 57 54 52 51 51 53 52 52 46 40 36 41 44 48 52 52 41
58 53 59 42 53 47 37 36 37 37 39 41 45 46 49 53 50 52 54 52 51 52 53 52 53 53 54 58 56 54 53 52 47 44 43 42 47 47 49 43 38 40 45 45 49 51 46
29 30 28 28 30 33 36 37 37 40 41 44 45 47 48 48 49 48 48 47 48 51 51 51 53 53 55 54 53 54 57 54 51 44 42 43 42 42 41 43 44 43 44 49 51 52 53
27 28 29 31 34 35 36 37 41 41 41 43 44 45 45 44 44 45 46 46 45 44 41 38 40 39 37 36 43 44 44 46 48 48 41 41 44 37 42 35 37 41 29 31 35 37 41
31 30 31 32 35 36 38 39 38 39 39 41 41 41 40 40 38 38 37 37 33 30 26 26 27 22 24 26 25 27 29 31 36 41 45 41 40 38 41 28 44 40 37 35 35 35 36
29 30 31 32 34 34 33 33 35 36 36 36 34 33 32 30 29 29 29 28 27 25 24 23 23 24 26 26 27 26 24 26 27 28 41 41 43 46 41 42 42 38 36 33 32 30 29
29 28 27 27 27 27 29 31 31 30 30 30 30 29 28 27 27 29 29 29 28 27 27 28 30 30 29 27 25 24 24 25 18 19 21 47 51 49 35 37 35 31 26 26 27 27 24
22 22 21 22 22 23 25 25 27 28 27 27 27 27 27 27 26 28 29 28 28 28 28 29 31 30 29 24 21 19 14 15 17 15 15 25 33 44 45 48 42 30 30 28 31 23 20
16 15 16 16 19 21 22 23 23 23 23 24 26 26 26 27 27 28 29 28 29 29 30 30 30 28 28 25 20 18 19 16 16 15 16 20 27 33 37 48 45 33 34 33 26 28 22
13 13 16 17 19 21 23 23 23 23 24 25 27 28 27 27 26 29 29 29 29 30 29 28 25 25 25 25 25 26 19 16 17 15 14 15 17 26 29 28 31 25 30 29 24 23 25
Wind_Direction
270 265 265 267 267 265 262 261 262 263 265 265 266 270 270 268 270 271 271 272 274 276 276 273 267 267 269 271 272 275 272 272 272 273 273 271 273 276 277 279 284 284 283 282 277 269 271
263 260 260 265 264 261 260 258 256 261 261 261 261 264 266 268 270 271 273 275 274 275 275 275 272 266 263 267 275 277 279 276 272 272 269 269 268 271 276 280 278 279 280 283 279 273 267
258 257 258 262 263 261 257 256 253 256 257 260 259 259 262 266 267 270 271 273 275 276 276 276 274 274 270 262 268 274 281 284 280 276 272 274 271 269 270 271 276 276 274 274 276 277 276
257 257 255 260 262 260 258 259 256 254 256 258 261 259 260 265 269 268 268 267 272 275 276 276 279 276 278 275 273 272 274 275 276 277 274 270 271 271 271 270 271 271 273 275 274 271 269
255 256 257 259 262 259 258 256 257 257 256 258 261 262 262 263 268 269 268 268 268 270 272 275 277 280 278 278 275 273 272 274 277 274 271 274 272 272 270 270 272 276 273 267 260 260 267
254 254 256 259 259 257 259 255 255 256 260 259 259 262 266 264 266 268 268 267 269 268 270 273 276 278 277 278 279 276 276 278 276 276 278 275 274 272 276 275 270 263 264 264 265 263 260
252 254 254 259 255 256 258 261 258 258 259 261 261 263 262 263 261 262 266 267 267 268 268 272 271 272 273 273 277 282 281 278 280 278 280 276 277 279 275 268 269 267 263 263 262 262 261
253 257 251 258 255 255 254 262 261 262 255 267 264 261 263 259 258 261 264 266 266 268 268 268 269 269 269 271 274 279 278 283 280 283 282 281 278 283 281 279 271 267 268 266 264 263 260
251 253 250 255 248 251 255 251 259 256 252 254 252 260 264 261 263 263 266 267 271 270 268 266 270 274 273 274 274 279 278 280 280 280 283 280 282 280 279 279 279 278 270 267 266 262 262
250 248 251 253 252 247 252 248 250 246 248 248 244 254 262 264 265 266 266 270 272 271 267 268 272 272 273 274 277 279 280 280 278 278 278 276 277 279 279 278 277 281 277 275 270 267 266
247 250 251 247 247 248 250 246 254 237 248 242 249 254 263 266 268 268 267 267 269 269 270 273 277 279 280 280 280 279 278 277 276 275 275 278 275 274 274 276 274 277 269 273 277 272 275
246 246 245 246 247 249 247 247 247 239 244 244 251 255 259 260 264 264 263 266 267 269 272 273 279 282 282 280 279 280 280 278 276 277 278 277 278 277 278 277 275 274 275 271 268 267 268
248 249 250 249 244 246 245 246 240 238 248 254 251 248 251 253 258 260 261 263 263 266 275 278 279 279 282 281 284 284 284 284 282 279 279 276 276 274 273 274 275 273 271 267 266 263 270
241 239 240 239 238 235 236 233 233 242 245 244 250 256 255 256 257 262 265 267 268 272 280 281 281 281 282 282 284 286 287 288 287 288 287 286 281 279 280 274 268 266 262 258 259 257 263
228 221 223 231 232 235 240 247 249 246 252 257 264 268 265 264 270 275 274 274 275 278 281 283 279 279 281 282 283 283 284 286 283 284 284 284 283 285 282 277 269 262 261 261 261 257 256
228 233 237 246 241 250 252 250 250 256 261 266 264 265 266 269 272 274 276 278 279 278 276 274 274 275 275 275 277 279 279 281 280 281 282 281 280 278 278 276 272 266 261 261 260 262 262
244 247 257 260 257 247 247 256 255 254 253 257 262 266 269 272 274 276 279 278 276 273 272 272 272 273 272 271 272 271 273 273 273 272 273 274 272 271 266 264 262 261 262 260 258 257 261
240 238 243 246 244 243 245 244 248 252 264 264 263 271 270 268 273 277 276 275 272 269 268 268 269 271 271 271 270 270 270 269 270 270 270 269 263 255 249 251 247 241 235 238 243 242 252
231 234 236 240 238 234 243 255 267 269 269 267 263 269 265 266 267 268 268 267 265 266 265 267 268 269 269 270 270 269 269 269 269 269 267 265 263 267 261 253 254 249 236 227 229 229 232
232 230 234 236 240 251 269 276 268 265 264 263 263 263 265 264 265 264 263 263 265 265 267 268 270 271 271 271 272 274 273 271 267 267 262 261 259 261 263 263 256 252 245 252 256 263 257
233 236 238 259 252 268 276 274 266 267 266 262 263 262 259 262 264 263 264 265 265 267 268 271 270 269 269 269 268 270 269 267 265 263 261 261 262 262 260 260 248 251 249 247 241 242 247
254 255 255 256 261 258 261 260 256 255 256 256 257 256 259 260 263 265 266 267 268 269 269 270 271 271 271 273 273 268 269 268 264 261 260 256 255 260 259 255 257 257 256 254 252 256 261
236 231 231 244 247 244 249 250 249 251 251 251 256 257 260 262 264 266 267 266 266 270 271 270 270 272 275 270 271 280 279 273 269 261 254 253 252 260 264 257 263 261 267 266 263 258 261
220 223 225 233 237 239 244 246 246 246 252 257 259 261 263 265 265 266 266 266 267 269 270 266 270 274 269 283 286 287 290 287 276 260 251 252 247 243 249 261 262 266 265 271 270 263 264
221 228 232 234 236 239 240 244 249 255 257 260 260 260 260 259 258 259 261 264 267 269 272 273 272 274 277 285 289 290 294 292 288 276 240 241 238 239 246 253 263 256 269 270 264 265 264
219 222 225 228 233 240 245 250 253 255 256 258 258 256 256 258 261 262 265 267 270 271 273 274 273 274 276 279 283 290 296 309 296 292 257 241 242 248 242 251 261 260 263 259 261 266 272
209 215 223 232 237 244 249 252 256 258 257 257 258 260 263 266 268 269 268 268 268 270 272 270 271 274 273 271 276 278 308 328 291 291 277 255 254 256 258 261 258 257 248 258 261 266 269
212 216 228 236 247 254 257 259 260 261 262 264 265 267 268 268 269 266 268 270 271 273 272 272 270 267 262 263 257 261 278 290 298 291 281 261 249 253 260 254 256 248 247 252 265 254 256
216 229 240 249 252 257 259 260 263 265 268 269 269 271 272 271 268 269 271 273 273 272 272 271 269 262 254 247 237 249 267 275 303 301 294 269 253 244 241 249 245 243 247 252 239 242 254